DLH84M EDDF-LFPG

Flight info

Callsign DLH84M
Flight time 0h 50m
Altitude 24000
Route SOBRA2L SOBRA Y180 DIK UN857 TOLVU/N0423F230 DCT RAPOR DCT VEDUS
Aircraft A319/M-SDE3FGHIRWY/LB1

Departure

Time 2026-04-18 06:25
Airport Frankfurt Main Airport (EDDF)

Arrival

Time 2026-04-18 07:15
Airport Charles de Gaulle International Airport (LFPG)
Time Latitude Longitude Altitude Speed Heading
2026-04-18 06:01 50.03670 8.52429 342 ft 0 kts 339°
2026-04-18 06:19 50.03662 8.52434 348 ft 4 kts 339°
2026-04-18 06:19 50.03636 8.52449 338 ft 4 kts 339°
2026-04-18 06:19 50.03611 8.52463 339 ft 4 kts 339°
2026-04-18 06:19 50.03597 8.52471 338 ft 0 kts 339°
2026-04-18 06:21 50.03601 8.52466 338 ft 3 kts 323°
2026-04-18 06:22 50.03574 8.52385 337 ft 14 kts 236°
2026-04-18 06:22 50.03491 8.52309 338 ft 16 kts 184°
2026-04-18 06:22 50.03412 8.52316 332 ft 12 kts 147°
2026-04-18 06:22 50.03398 8.52426 334 ft 2 kts 89°
2026-04-18 06:23 50.03398 8.52427 334 ft 0 kts 89°
2026-04-18 06:24 50.03398 8.52428 334 ft 1 kts 89°
2026-04-18 06:24 50.03399 8.52491 335 ft 8 kts 89°
2026-04-18 06:24 50.03397 8.52577 336 ft 7 kts 115°
2026-04-18 06:24 50.03337 8.52594 336 ft 14 kts 179°
2026-04-18 06:25 50.02963 8.52597 336 ft 95 kts 180°
2026-04-18 06:25 50.02059 8.52607 338 ft 161 kts 179°
2026-04-18 06:25 50.00913 8.52598 992 ft 165 kts 179°
2026-04-18 06:25 49.99768 8.52651 1755 ft 168 kts 177°
2026-04-18 06:26 49.98541 8.52736 2229 ft 189 kts 177°
2026-04-18 06:26 49.97117 8.52838 2668 ft 215 kts 177°
2026-04-18 06:26 49.95589 8.52944 3427 ft 226 kts 177°
2026-04-18 06:26 49.94007 8.53052 4406 ft 229 kts 178°
2026-04-18 06:27 49.92405 8.53163 5386 ft 232 kts 178°
2026-04-18 06:27 49.90780 8.53273 6363 ft 235 kts 179°
2026-04-18 06:27 49.89133 8.53381 7305 ft 238 kts 179°
2026-04-18 06:27 49.87465 8.53350 8218 ft 242 kts 189°
2026-04-18 06:28 49.85794 8.52642 8832 ft 262 kts 201°
2026-04-18 06:28 49.84025 8.51629 9490 ft 278 kts 201°
2026-04-18 06:28 49.82191 8.50577 10363 ft 285 kts 201°
2026-04-18 06:28 49.80249 8.49468 10769 ft 310 kts 201°
2026-04-18 06:29 49.78215 8.48055 11078 ft 332 kts 215°
2026-04-18 06:29 49.76637 8.45360 11467 ft 348 kts 243°
2026-04-18 06:29 49.76049 8.41734 12173 ft 353 kts 270°
2026-04-18 06:29 49.76414 8.37965 13014 ft 356 kts 282°
2026-04-18 06:30 49.76987 8.34215 13880 ft 359 kts 284°
2026-04-18 06:30 49.77607 8.30518 14616 ft 361 kts 284°
2026-04-18 06:30 49.78256 8.26743 15333 ft 365 kts 284°
2026-04-18 06:30 49.78907 8.22919 16038 ft 368 kts 284°
2026-04-18 06:31 49.79548 8.19068 16743 ft 372 kts 284°
2026-04-18 06:31 49.80180 8.15163 17439 ft 376 kts 283°
2026-04-18 06:31 49.80808 8.11220 18150 ft 379 kts 283°
2026-04-18 06:31 49.81440 8.07238 18788 ft 383 kts 283°
2026-04-18 06:32 49.82074 8.03220 19387 ft 386 kts 283°
2026-04-18 06:32 49.82709 7.99165 19975 ft 389 kts 283°
2026-04-18 06:32 49.83346 7.95076 20547 ft 392 kts 283°
2026-04-18 06:32 49.83990 7.90954 21105 ft 395 kts 283°
2026-04-18 06:33 49.84638 7.86799 21655 ft 398 kts 283°
2026-04-18 06:33 49.85292 7.82611 22188 ft 401 kts 283°
2026-04-18 06:33 49.85945 7.78448 22703 ft 404 kts 283°
2026-04-18 06:33 49.86616 7.74196 23217 ft 408 kts 283°
2026-04-18 06:34 49.87297 7.69906 23727 ft 410 kts 283°
2026-04-18 06:34 49.87974 7.65596 24072 ft 412 kts 283°
2026-04-18 06:34 49.88643 7.61266 24169 ft 416 kts 282°
2026-04-18 06:34 49.89322 7.56837 24192 ft 428 kts 282°
2026-04-18 06:35 49.90009 7.52317 24193 ft 432 kts 282°
2026-04-18 06:35 49.90700 7.47771 24193 ft 433 kts 282°
2026-04-18 06:35 49.91393 7.43208 24197 ft 434 kts 282°
2026-04-18 06:35 49.92085 7.38663 24191 ft 434 kts 282°
2026-04-18 06:36 49.92782 7.34098 24220 ft 434 kts 282°
2026-04-18 06:36 49.93476 7.29542 24221 ft 434 kts 282°
2026-04-18 06:36 49.94159 7.25047 24222 ft 433 kts 282°
2026-04-18 06:36 49.94859 7.20435 24220 ft 433 kts 282°
2026-04-18 06:37 49.95537 7.15944 24222 ft 433 kts 282°
2026-04-18 06:37 49.96222 7.11382 24214 ft 433 kts 282°
2026-04-18 06:37 49.96902 7.06829 24211 ft 433 kts 282°
2026-04-18 06:37 49.97580 7.02269 24211 ft 433 kts 282°
2026-04-18 06:38 49.98255 6.97715 24192 ft 433 kts 282°
2026-04-18 06:38 49.98914 6.93152 24196 ft 432 kts 279°
2026-04-18 06:38 49.99232 6.88517 24201 ft 432 kts 271°
2026-04-18 06:38 49.99145 6.83859 24192 ft 431 kts 267°
2026-04-18 06:39 49.99003 6.79204 24196 ft 431 kts 267°
2026-04-18 06:39 49.98861 6.74601 24196 ft 431 kts 267°
2026-04-18 06:39 49.98718 6.69952 24196 ft 431 kts 267°
2026-04-18 06:39 49.98576 6.65300 24195 ft 431 kts 267°
2026-04-18 06:40 49.98424 6.60659 24196 ft 431 kts 265°
2026-04-18 06:40 49.97969 6.56064 24180 ft 431 kts 257°
2026-04-18 06:40 49.97044 6.51647 24179 ft 432 kts 248°
2026-04-18 06:40 49.95847 6.47360 24183 ft 432 kts 247°
2026-04-18 06:41 49.94650 6.43095 24178 ft 432 kts 247°
2026-04-18 06:41 49.93853 6.40260 24180 ft 432 kts 247°
2026-04-18 06:41 49.92244 6.34556 24202 ft 431 kts 247°
2026-04-18 06:41 49.91041 6.30301 24216 ft 430 kts 247°
2026-04-18 06:42 49.90242 6.27485 24219 ft 430 kts 247°
2026-04-18 06:42 49.89016 6.23258 24223 ft 429 kts 246°
2026-04-18 06:42 49.87800 6.19037 24223 ft 429 kts 247°
2026-04-18 06:42 49.86594 6.14806 24222 ft 429 kts 245°
2026-04-18 06:43 49.85118 6.10786 24228 ft 430 kts 237°
2026-04-18 06:43 49.83406 6.06985 24224 ft 430 kts 236°
2026-04-18 06:43 49.81680 6.03200 24223 ft 430 kts 236°
2026-04-18 06:43 49.79957 5.99459 24206 ft 431 kts 236°
2026-04-18 06:44 49.78212 5.95690 24211 ft 431 kts 236°
2026-04-18 06:44 49.76458 5.91916 24209 ft 431 kts 236°
2026-04-18 06:44 49.74771 5.88089 24200 ft 430 kts 241°
2026-04-18 06:44 49.73472 5.83945 24215 ft 428 kts 250°
2026-04-18 06:45 49.72475 5.79619 24220 ft 427 kts 251°
2026-04-18 06:45 49.71481 5.75304 24223 ft 426 kts 251°
2026-04-18 06:45 49.70478 5.70999 24228 ft 425 kts 251°
2026-04-18 06:45 49.69472 5.66703 24225 ft 425 kts 251°
2026-04-18 06:46 49.68464 5.62412 24223 ft 425 kts 251°
2026-04-18 06:46 49.67458 5.58123 24221 ft 425 kts 251°
2026-04-18 06:46 49.66454 5.53834 24222 ft 425 kts 251°
2026-04-18 06:46 49.65448 5.49547 24218 ft 425 kts 251°
2026-04-18 06:47 49.64443 5.45274 24214 ft 425 kts 251°
2026-04-18 06:47 49.63432 5.40995 24215 ft 424 kts 251°
2026-04-18 06:47 49.62419 5.36713 24231 ft 424 kts 250°
2026-04-18 06:47 49.61444 5.32428 24220 ft 423 kts 252°
2026-04-18 06:48 49.60529 5.28183 24211 ft 423 kts 252°
2026-04-18 06:48 49.59671 5.23851 24217 ft 422 kts 257°
2026-04-18 06:48 49.59231 5.19383 24214 ft 422 kts 266°
2026-04-18 06:48 49.59222 5.14860 24218 ft 422 kts 271°
2026-04-18 06:49 49.59280 5.10335 24220 ft 422 kts 270°
2026-04-18 06:49 49.59316 5.05809 24218 ft 422 kts 270°
2026-04-18 06:49 49.59340 5.01283 24216 ft 422 kts 270°
2026-04-18 06:49 49.59359 4.96748 24216 ft 422 kts 270°
2026-04-18 06:50 49.59382 4.92223 24225 ft 422 kts 269°
2026-04-18 06:50 49.59408 4.87710 24225 ft 422 kts 269°
2026-04-18 06:50 49.59435 4.83191 24227 ft 422 kts 269°
2026-04-18 06:50 49.59465 4.78665 24222 ft 421 kts 269°
2026-04-18 06:51 49.59497 4.74151 24230 ft 421 kts 269°
2026-04-18 06:51 49.59524 4.69637 24223 ft 421 kts 269°
2026-04-18 06:51 49.59548 4.65175 24225 ft 421 kts 269°
2026-04-18 06:51 49.59569 4.60675 24223 ft 421 kts 269°
2026-04-18 06:52 49.59588 4.56165 24222 ft 421 kts 269°
2026-04-18 06:52 49.59605 4.51656 24220 ft 421 kts 269°
2026-04-18 06:52 49.59619 4.47148 24228 ft 420 kts 269°
2026-04-18 06:52 49.59632 4.42633 24228 ft 420 kts 269°
2026-04-18 06:53 49.59643 4.38129 24225 ft 420 kts 269°
2026-04-18 06:53 49.59651 4.33628 24224 ft 420 kts 269°
2026-04-18 06:53 49.59655 4.29128 24223 ft 420 kts 269°
2026-04-18 06:53 49.59657 4.24629 24223 ft 420 kts 269°
2026-04-18 06:54 49.59658 4.20129 24228 ft 420 kts 269°
2026-04-18 06:54 49.59664 4.15630 24227 ft 420 kts 269°
2026-04-18 06:54 49.59541 4.11141 24222 ft 419 kts 262°
2026-04-18 06:54 49.58946 4.06816 24219 ft 419 kts 253°
2026-04-18 06:55 49.57853 4.02661 24220 ft 419 kts 244°
2026-04-18 06:55 49.56333 3.98811 24217 ft 420 kts 238°
2026-04-18 06:55 49.54766 3.95113 24016 ft 403 kts 238°
2026-04-18 06:55 49.53262 3.91550 23495 ft 392 kts 238°
2026-04-18 06:56 49.51792 3.88056 22779 ft 387 kts 238°
2026-04-18 06:56 49.50336 3.84598 22094 ft 383 kts 238°
2026-04-18 06:56 49.48889 3.81159 21436 ft 379 kts 239°
2026-04-18 06:56 49.47640 3.77627 20813 ft 374 kts 247°
2026-04-18 06:57 49.46810 3.73856 20232 ft 371 kts 255°
2026-04-18 06:57 49.45542 3.66283 19110 ft 366 kts 255°
2026-04-18 06:57 49.44893 3.62464 18575 ft 363 kts 255°
2026-04-18 06:58 49.44256 3.58724 17978 ft 361 kts 255°
2026-04-18 06:58 49.43631 3.55059 17396 ft 358 kts 255°
2026-04-18 06:58 49.43001 3.51375 16822 ft 355 kts 255°
2026-04-18 06:58 49.42379 3.47736 16371 ft 349 kts 255°
2026-04-18 06:59 49.41687 3.44186 15833 ft 345 kts 249°
2026-04-18 06:59 49.40781 3.40782 15259 ft 343 kts 248°
2026-04-18 06:59 49.39877 3.37403 14696 ft 341 kts 248°
2026-04-18 06:59 49.38978 3.34043 14140 ft 339 kts 248°
2026-04-18 07:00 49.38082 3.30695 13528 ft 337 kts 248°
2026-04-18 07:00 49.37191 3.27380 12916 ft 335 kts 248°
2026-04-18 07:00 49.36305 3.24088 12309 ft 332 kts 248°
2026-04-18 07:00 49.35428 3.20822 11696 ft 330 kts 248°
2026-04-18 07:01 49.34567 3.17617 11103 ft 328 kts 248°
2026-04-18 07:01 49.33699 3.14398 10592 ft 325 kts 248°
2026-04-18 07:01 49.32829 3.11187 10366 ft 327 kts 248°
2026-04-18 07:01 49.31957 3.07972 10130 ft 326 kts 248°
2026-04-18 07:02 49.31090 3.04781 9858 ft 319 kts 248°
2026-04-18 07:02 49.30257 3.01707 9587 ft 306 kts 248°
2026-04-18 07:02 49.29452 2.98739 9319 ft 296 kts 248°
2026-04-18 07:02 49.28675 2.95877 9059 ft 286 kts 248°
2026-04-18 07:03 49.27923 2.93112 8801 ft 278 kts 248°
2026-04-18 07:03 49.27188 2.90411 8543 ft 270 kts 248°
2026-04-18 07:03 49.26468 2.87777 8281 ft 267 kts 248°
2026-04-18 07:03 49.25751 2.85151 8031 ft 267 kts 248°
2026-04-18 07:04 49.25030 2.82527 7772 ft 267 kts 248°
2026-04-18 07:04 49.24313 2.79909 7520 ft 267 kts 248°
2026-04-18 07:04 49.23598 2.77292 7276 ft 267 kts 248°
2026-04-18 07:04 49.22889 2.74706 7028 ft 266 kts 248°
2026-04-18 07:05 49.22172 2.72096 6777 ft 266 kts 248°
2026-04-18 07:05 49.21452 2.69490 6535 ft 266 kts 248°
2026-04-18 07:05 49.20731 2.66885 6317 ft 265 kts 248°
2026-04-18 07:05 49.20012 2.64285 6188 ft 264 kts 248°
2026-04-18 07:06 49.19299 2.61701 6057 ft 263 kts 248°
2026-04-18 07:06 49.18590 2.59118 5931 ft 263 kts 248°
2026-04-18 07:06 49.18116 2.56427 5794 ft 263 kts 263°
2026-04-18 07:06 49.18028 2.53633 5677 ft 263 kts 268°
2026-04-18 07:07 49.17975 2.50836 5550 ft 263 kts 268°
2026-04-18 07:07 49.17915 2.48039 5424 ft 263 kts 268°
2026-04-18 07:07 49.17853 2.45238 5299 ft 263 kts 268°
2026-04-18 07:07 49.17790 2.42473 5174 ft 263 kts 268°
2026-04-18 07:08 49.17727 2.39674 5048 ft 264 kts 268°
2026-04-18 07:08 49.17662 2.36867 4919 ft 264 kts 268°
2026-04-18 07:08 49.17618 2.34070 4775 ft 264 kts 269°
2026-04-18 07:08 49.17527 2.31278 4641 ft 263 kts 258°
2026-04-18 07:09 49.16760 2.28783 4518 ft 260 kts 229°
2026-04-18 07:09 49.15342 2.27249 4382 ft 245 kts 199°
2026-04-18 07:09 49.13698 2.27012 4255 ft 234 kts 175°
2026-04-18 07:09 49.12122 2.27304 4126 ft 223 kts 172°
2026-04-18 07:10 49.10616 2.27634 3981 ft 214 kts 172°
2026-04-18 07:10 49.09167 2.27955 3835 ft 207 kts 172°
2026-04-18 07:10 49.07761 2.28268 3720 ft 203 kts 172°
2026-04-18 07:10 49.06367 2.28570 3594 ft 202 kts 172°
2026-04-18 07:11 49.04965 2.28858 3465 ft 203 kts 172°
2026-04-18 07:11 49.03567 2.29147 3347 ft 202 kts 172°
2026-04-18 07:11 49.02193 2.29566 3307 ft 202 kts 159°
2026-04-18 07:11 49.01062 2.30804 3302 ft 203 kts 128°
2026-04-18 07:12 49.00522 2.32782 3159 ft 206 kts 97°
2026-04-18 07:12 49.00743 2.34931 2807 ft 211 kts 70°
2026-04-18 07:12 49.01312 2.37005 2530 ft 211 kts 69°
2026-04-18 07:12 49.01735 2.39137 2193 ft 209 kts 82°
2026-04-18 07:13 49.01898 2.41283 1902 ft 199 kts 89°
2026-04-18 07:13 49.01970 2.43310 1691 ft 184 kts 88°
2026-04-18 07:13 49.02084 2.45178 1440 ft 171 kts 89°
2026-04-18 07:13 49.02173 2.46912 1216 ft 160 kts 86°
2026-04-18 07:14 49.02262 2.48548 960 ft 151 kts 88°
2026-04-18 07:14 49.02334 2.50051 750 ft 136 kts 86°
2026-04-18 07:14 49.02418 2.51480 542 ft 135 kts 87°
2026-04-18 07:14 49.02496 2.52896 374 ft 132 kts 86°
2026-04-18 07:15 49.02559 2.54096 354 ft 92 kts 85°
2026-04-18 07:15 49.02599 2.54826 353 ft 54 kts 86°
2026-04-18 07:15 49.02590 2.55188 361 ft 16 kts 106°
2026-04-18 07:15 49.02551 2.55356 355 ft 18 kts 111°
2026-04-18 07:16 49.02498 2.55523 357 ft 13 kts 117°
2026-04-18 07:16 49.02432 2.55600 357 ft 13 kts 159°
2026-04-18 07:16 49.02338 2.55622 356 ft 14 kts 175°
2026-04-18 07:16 49.02232 2.55635 355 ft 16 kts 175°
2026-04-18 07:17 49.02117 2.55638 355 ft 17 kts 198°
2026-04-18 07:17 49.02062 2.55484 361 ft 18 kts 264°
2026-04-18 07:17 49.02052 2.55287 355 ft 19 kts 265°
2026-04-18 07:17 49.02041 2.55079 355 ft 20 kts 265°
2026-04-18 07:18 49.02029 2.54859 355 ft 21 kts 265°
2026-04-18 07:18 49.02017 2.54628 358 ft 22 kts 265°
2026-04-18 07:18 49.02007 2.54446 355 ft 11 kts 265°
2026-04-18 07:18 49.02000 2.54319 361 ft 13 kts 264°
2026-04-18 07:19 49.01978 2.54185 358 ft 14 kts 235°
2026-04-18 07:19 49.01891 2.54130 355 ft 15 kts 176°
2026-04-18 07:19 49.01829 2.54118 358 ft 8 kts 211°
2026-04-18 07:19 49.01806 2.54034 355 ft 9 kts 257°
2026-04-18 07:20 49.01784 2.53935 358 ft 10 kts 246°
2026-04-18 07:20 49.01750 2.53844 355 ft 10 kts 235°
2026-04-18 07:20 49.01708 2.53810 357 ft 7 kts 165°
2026-04-18 07:20 49.01656 2.53834 355 ft 5 kts 164°
2026-04-18 07:21 49.01625 2.53843 355 ft 2 kts 169°
2026-04-18 07:21 49.01617 2.53846 355 ft 2 kts 168°
2026-04-18 07:21 49.01615 2.53846 355 ft 0 kts 168°